Rome Fiumicino, Italy

8:56 PM CEST on October 19, 2017 (GMT +0200)
Fiumicino

Weather History for LIRF - May, 2013

Change the Weather History Date:

Saturday, May 11, 2013

  Actual Average Record
Temperature  
Mean Temperature 64 °F -  
Max Temperature 69 °F 74 °F 80 °F (2003)
Min Temperature 60 °F 56 °F 44 °F (2004)
Growing Degree Days 14 (Base 50)    
Moisture  
Dew Point 57 °F    
Average Humidity 77    
Maximum Humidity 94    
Minimum Humidity 60    
Precipitation  
Precipitation 0.00 in 0.03 in - ()
Sea Level Pressure  
Sea Level Pressure 29.89 in    
Wind  
Wind Speed 7 mph ()    
Max Wind Speed 15 mph    
Max Gust Speed -    
Visibility 5.8 miles    
Events      
Averages and records for this station are not official NWS values.
T = Trace of Precipitation, MM = Missing Value Source: Averaged Metar Reports

Daily Weather History Graph

Daily Weather History Graph

Search for Another Location

Airport or City:

Trip Planner

Search our weather history database for the weather conditions in past years. The results will help you decide how hot, cold, wet, or windy it might be!

Date:

Astronomy

May. 11, 2013 Rise Set
Actual Time 5:55 AM CEST 8:20 PM CEST
Civil Twilight 5:24 AM CEST 8:51 PM CEST
Nautical Twilight 4:45 AM CEST 9:30 PM CEST
Astronomical Twilight 4:01 AM CEST 10:14 PM CEST
Moon 6:50 AM CEST (5/11) 9:47 PM CEST (5/11)
Length of Visible Light 15h 27m
Length of Day
14h 24m
New Moon, 2% of the Moon is Illuminated
May 11
New Moon
May 18
First Quarter
May 25
Full
May 31
Last Quarter
Jun 8
New

Hourly Weather History & Observations

Time (CEST) Temp. Dew Point Humidity Pressure Visibility Wind Dir Wind Speed Gust Speed Precip Events Conditions
12:20 AM 62.6 °F 59.0 °F 88% 29.95 in - SSE 2.3 mph - N/A   Clear
12:50 AM 62.6 °F 59.0 °F 88% 29.95 in - SE 2.3 mph - N/A   Clear
1:20 AM 62.6 °F 59.0 °F 88% 29.95 in - Variable 3.5 mph - N/A   Clear
1:50 AM 60.8 °F 59.0 °F 94% 29.92 in 5.6 mi East 4.6 mph - N/A   Partly Cloudy
2:20 AM 60.8 °F 59.0 °F 94% 29.92 in 5.6 mi ESE 5.8 mph - N/A   Partly Cloudy
2:50 AM 60.8 °F 59.0 °F 94% 29.92 in 5.6 mi SE 5.8 mph - N/A   Partly Cloudy
3:20 AM 62.6 °F 59.0 °F 88% 29.92 in 5.6 mi SE 5.8 mph - N/A   Partly Cloudy
3:50 AM 62.6 °F 60.8 °F 94% 29.89 in 5.0 mi SE 6.9 mph - N/A   Scattered Clouds
4:20 AM 62.6 °F 60.8 °F 94% 29.89 in 5.0 mi SE 6.9 mph - N/A   Scattered Clouds
4:50 AM 62.6 °F 59.0 °F 88% 29.89 in 5.0 mi SSE 4.6 mph - N/A   Scattered Clouds
5:20 AM 62.6 °F 59.0 °F 88% 29.89 in 5.0 mi SW 6.9 mph - N/A   Scattered Clouds
5:50 AM 62.6 °F 57.2 °F 82% 29.89 in 5.6 mi SW 5.8 mph - N/A   Scattered Clouds
6:20 AM 62.6 °F 57.2 °F 82% 29.89 in 6.2 mi SSW 5.8 mph - N/A   Scattered Clouds
6:50 AM 64.4 °F 57.2 °F 77% 29.89 in 6.2 mi SSW 8.1 mph - N/A   Scattered Clouds
7:20 AM 64.4 °F 55.4 °F 73% 29.89 in 6.2 mi SSW 6.9 mph - N/A   Scattered Clouds
7:50 AM 64.4 °F 55.4 °F 73% 29.89 in 6.2 mi SW 8.1 mph - N/A   Scattered Clouds
8:20 AM 64.4 °F 55.4 °F 73% 29.89 in 6.2 mi SSW 8.1 mph - N/A   Scattered Clouds
8:50 AM 64.4 °F 55.4 °F 73% 29.89 in 6.2 mi SSW 10.4 mph - N/A   Scattered Clouds
9:20 AM 66.2 °F 55.4 °F 68% 29.89 in 6.2 mi SSW 10.4 mph - N/A   Scattered Clouds
9:50 AM 66.2 °F 55.4 °F 68% 29.89 in 6.2 mi SSW 11.5 mph - N/A   Scattered Clouds
10:20 AM 66.2 °F 53.6 °F 64% 29.89 in 6.2 mi SSW 12.7 mph - N/A   Scattered Clouds
10:50 AM 68.0 °F 53.6 °F 60% 29.89 in 6.2 mi South 11.5 mph - N/A   Scattered Clouds
11:20 AM 68.0 °F 53.6 °F 60% 29.89 in 6.2 mi SSE 10.4 mph - N/A   Partly Cloudy
11:50 AM 68.0 °F 53.6 °F 60% 29.89 in 6.2 mi South 9.2 mph - N/A   Partly Cloudy
12:20 PM 69.8 °F 55.4 °F 60% 29.89 in 6.2 mi South 6.9 mph - N/A   Partly Cloudy
12:50 PM 69.8 °F 57.2 °F 64% 29.89 in 6.2 mi WSW 9.2 mph - N/A   Partly Cloudy
1:20 PM 69.8 °F 57.2 °F 64% 29.89 in 6.2 mi SW 12.7 mph - N/A   Partly Cloudy
1:50 PM 68.0 °F 57.2 °F 68% 29.89 in 6.2 mi West 15.0 mph - N/A   Partly Cloudy
2:20 PM 68.0 °F 57.2 °F 68% 29.89 in 6.2 mi West 13.8 mph - N/A   Partly Cloudy
2:50 PM 68.0 °F 57.2 °F 68% 29.86 in 6.2 mi WSW 11.5 mph - N/A   Partly Cloudy
3:20 PM 68.0 °F 57.2 °F 68% 29.86 in 6.2 mi WSW 12.7 mph - N/A   Partly Cloudy
3:50 PM 68.0 °F 57.2 °F 68% 29.86 in 6.2 mi WSW 12.7 mph - N/A   Partly Cloudy
4:20 PM 68.0 °F 57.2 °F 68% 29.86 in 6.2 mi West 11.5 mph - N/A   Partly Cloudy
4:50 PM 68.0 °F 57.2 °F 68% 29.86 in 6.2 mi WSW 10.4 mph - N/A   Partly Cloudy
5:20 PM 68.0 °F 57.2 °F 68% 29.86 in 6.2 mi West 13.8 mph - N/A   Scattered Clouds
5:50 PM 66.2 °F 55.4 °F 68% 29.86 in 6.2 mi West 12.7 mph - N/A   Scattered Clouds
6:20 PM 66.2 °F 55.4 °F 68% 29.86 in 6.2 mi West 11.5 mph - N/A   Scattered Clouds
6:50 PM 66.2 °F 57.2 °F 73% 29.86 in 6.2 mi West 10.4 mph - N/A   Scattered Clouds
7:20 PM 64.4 °F 57.2 °F 77% 29.86 in 6.2 mi West 11.5 mph - N/A   Scattered Clouds
7:50 PM 64.4 °F 57.2 °F 77% 29.86 in 6.2 mi West 9.2 mph - N/A   Scattered Clouds
8:20 PM 62.6 °F 57.2 °F 82% 29.86 in 5.6 mi West 8.1 mph - N/A   Scattered Clouds
8:50 PM 62.6 °F 57.2 °F 82% 29.86 in 5.6 mi West 6.9 mph - N/A   Scattered Clouds
9:20 PM 62.6 °F 57.2 °F 82% 29.89 in 6.2 mi West 4.6 mph - N/A   Scattered Clouds
9:50 PM 62.6 °F 57.2 °F 82% 29.89 in 5.0 mi WSW 4.6 mph - N/A   Scattered Clouds
10:20 PM 60.8 °F 57.2 °F 88% 29.89 in 5.0 mi WSW 3.5 mph - N/A   Scattered Clouds
10:50 PM 60.8 °F 57.2 °F 88% 29.89 in 5.0 mi Variable 2.3 mph - N/A   Scattered Clouds
11:20 PM 60.8 °F 57.2 °F 88% 29.89 in 4.3 mi SE 5.8 mph - N/A   Scattered Clouds
11:50 PM 60.8 °F 57.2 °F 88% 29.89 in 4.3 mi SE 4.6 mph - N/A   Scattered Clouds